Location: Unspecified
(0.0000°N, 0.0000°E)
Time: 02:33:14
(UTC+00:00)

ISIS 1 - Visible Passes

Search period start: 16 May 2026 00:00
Search period end: 26 May 2026 00:00
Orbit: 577 x 3439 km, 88.4° (Epoch: 15 May)

Date Brightness Start Highest point End Pass type
(mag) Time Alt. Az. Time Alt. Az. Time Alt. Az.
16 May 11.7 04:39:44 10° NNE 04:55:12 36° E 05:06:25 10° SSE visible
16 May 8.8 18:28:55 10° SSW 18:33:34 55° W 18:40:53 10° NNW visible
17 May 12.0 04:05:35 10° NE 04:16:52 21° E 04:25:46 10° SE visible
18 May 10.6 05:28:50 10° N 05:47:03 74° E 05:59:02 10° S visible
18 May 11.0 19:22:56 10° WSW 19:25:26 13° W 19:28:22 10° NW visible
19 May 11.1 04:52:15 10° NNE 05:09:01 49° E 05:20:18 10° SSE visible
19 May 10.2 18:42:01 10° SSW 18:46:37 31° W 18:53:31 10° NNW visible
20 May 11.6 04:16:45 10° NNE 04:30:42 31° E 04:40:43 10° SE visible
21 May 11.9 03:43:20 10° NE 03:52:13 17° E 03:59:24 10° ESE visible
22 May 10.5 05:05:25 10° NNE 05:22:42 67° E 05:33:38 10° S visible
22 May 10.8 18:55:52 10° SW 18:59:55 19° W 19:05:21 10° NW visible
23 May 11.1 04:29:03 10° NNE 04:44:29 43° E 04:54:42 10° SSE visible
23 May 10.0 18:15:52 10° SSW 18:21:08 41° W 18:29:37 10° NNW visible
24 May 11.5 03:53:55 10° NE 04:06:01 26° E 04:14:47 10° SE visible
25 May 12.0 03:21:45 10° ENE 03:27:26 13° E 03:32:17 10° ESE visible
25 May 10.0 05:19:08 10° N 05:36:09 90° E 05:46:31 10° S visible
25 May 11.4 19:11:56 10° W 19:13:20 11° W 19:14:50 10° WNW visible
